Weather History for Cape Girardeau, MO

Change the Weather History Date:

Sunday, May 12, 2013

  Actual Average Record
Temperature  
Mean Temperature 54 °F 66 °F  
Max Temperature 66 °F 77 °F 89 °F (1962)
Min Temperature 41 °F 55 °F 38 °F (1989)
Degree Days  
Heating Degree Days 11 3  
Month to date heating degree days 73 41  
Since 1 July heating degree days 4339 4359  
Cooling Degree Days 0 3  
Month to date cooling degree days 11 28  
Year to date cooling degree days 36 59  
Growing Degree Days 3 (Base 50)    
Moisture  
Dew Point 34 °F    
Average Humidity 57    
Maximum Humidity 89    
Minimum Humidity 24    
Precipitation  
Precipitation 0.00 in 0.20 in 2.95 in (2002)
Month to date precipitation 2.03 2.34  
Year to date precipitation 14.85 17.98  
Sea Level Pressure  
Sea Level Pressure 30.18 in    
Wind  
Wind Speed 6 mph (NNW)    
Max Wind Speed 17 mph    
Max Gust Speed 23 mph    
Visibility 10 miles    
Events      
T = Trace of Precipitation, MM = Missing Value Source: NWS Daily Summary

Daily Weather History Graph

Daily Weather History Graph

Search for Another Location

Airport:

Trip Planner

Search our weather history database for the weather conditions in past years. The results will help you decide how hot, cold, wet, or windy it might be!

Date:

Astronomy

May. 12, 2013 Rise Set
Actual Time 5:52 AM CDT 7:57 PM CDT
Civil Twilight 5:23 AM CDT 8:26 PM CDT
Nautical Twilight 4:47 AM CDT 9:02 PM CDT
Astronomical Twilight 4:09 AM CDT 9:40 PM CDT
Moon 7:48 AM CDT (5/12) 10:24 PM CDT (5/12)
Length of Visible Light 15h 03m
Length of Day
14h 05m
Waxing Crescent, 7% of the Moon is Illuminated
May 12
Waxing Crescent
May 17
First Quarter
May 24
Full
May 31
Last Quarter
Jun 8
New

Hourly Weather History & Observations

Time (CDT) Temp. Windchill Dew Point Humidity Pressure Visibility Wind Dir Wind Speed Gust Speed Precip Events Conditions
12:53 AM 52.0 °F - 36.0 °F 54% 30.16 in 10.0 mi North 6.9 mph - N/A   Clear
1:53 AM 51.1 °F - 34.0 °F 52% 30.16 in 10.0 mi North 6.9 mph - N/A   Clear
2:53 AM 48.0 °F - 35.1 °F 61% 30.16 in 10.0 mi North 4.6 mph - N/A   Clear
3:53 AM 46.9 °F - 36.0 °F 66% 30.17 in 10.0 mi NW 5.8 mph - N/A   Clear
4:53 AM 42.1 °F 39.2 °F 39.0 °F 89% 30.17 in 10.0 mi WNW 4.6 mph - N/A   Clear
5:53 AM 44.1 °F 40.1 °F 36.0 °F 73% 30.18 in 10.0 mi NNW 6.9 mph - N/A   Clear
6:53 AM 46.9 °F - 37.9 °F 71% 30.19 in 10.0 mi Calm Calm - N/A   Clear
7:53 AM 48.9 °F - 34.0 °F 56% 30.22 in 10.0 mi NW 6.9 mph - N/A   Clear
8:53 AM 53.1 °F - 34.0 °F 48% 30.24 in 10.0 mi NNW 4.6 mph - N/A   Clear
9:53 AM 57.0 °F - 30.9 °F 37% 30.24 in 10.0 mi NNW 6.9 mph - N/A   Clear
10:53 AM 59.0 °F - 28.9 °F 32% 30.24 in 10.0 mi North 10.4 mph - N/A   Clear
11:53 AM 61.0 °F - 28.9 °F 30% 30.23 in 10.0 mi NNW 12.7 mph 21.9 mph N/A   Clear
12:53 PM 61.0 °F - 30.0 °F 31% 30.21 in 10.0 mi WNW 8.1 mph 23.0 mph N/A   Clear
1:53 PM 64.0 °F - 32.0 °F 30% 30.19 in 10.0 mi NNE 9.2 mph - N/A   Clear
2:53 PM 64.0 °F - 28.9 °F 27% 30.17 in 10.0 mi NW 9.2 mph - N/A   Clear
3:53 PM 64.9 °F - 28.9 °F 26% 30.16 in 10.0 mi North 9.2 mph 16.1 mph N/A   Clear
4:53 PM 64.9 °F - 27.0 °F 24% 30.16 in 10.0 mi NNW 8.1 mph - N/A   Clear
5:53 PM 64.9 °F - 26.1 °F 23% 30.15 in 10.0 mi NNW 9.2 mph - N/A   Clear
6:53 PM 63.0 °F - 27.0 °F 26% 30.14 in 10.0 mi NNW 8.1 mph - N/A   Clear
7:53 PM 59.0 °F - 32.0 °F 36% 30.14 in 10.0 mi North 5.8 mph - N/A   Clear
8:53 PM 51.1 °F - 42.1 °F 71% 30.16 in 10.0 mi Calm Calm - N/A   Clear
9:53 PM 48.9 °F - 43.0 °F 80% 30.17 in 10.0 mi Calm Calm - N/A   Clear
10:53 PM 48.0 °F - 41.0 °F 77% 30.19 in 10.0 mi Calm Calm - N/A   Clear
11:53 PM 46.0 °F - 41.0 °F 83% 30.19 in 10.0 mi Calm Calm - N/A   Clear